Sauk Centre, MN

3:20 PM CST on December 08, 2019 (GMT -0600)
Sauk Centre

Weather History for KD39 - October, 2019

Change the Weather History Date:

Saturday, October 26, 2019

  Actual Average (KGHW) Record (KGHW)
Temperature  
Mean Temperature 46 °F -  
Max Temperature 57 °F 57 °F 82 °F (1955)
Min Temperature 35 °F 33 °F 19 °F (1980)
Degree Days  
Heating Degree Days 19    
Moisture  
Dew Point 32 °F    
Average Humidity 63    
Maximum Humidity 85    
Minimum Humidity 39    
Precipitation  
Precipitation 0.00 in - - ()
Sea Level Pressure  
Sea Level Pressure 29.73 in    
Wind  
Wind Speed 10 mph ()    
Max Wind Speed 22 mph    
Max Gust Speed 26 mph    
Visibility 10.0 miles    
Events      
Averages and records for this station are not official NWS values.
T = Trace of Precipitation, MM = Missing Value Source: Averaged Metar Reports

Daily Weather History Graph

Daily Weather History Graph

Search for Another Location

Airport or City:

Astronomy

Oct. 26, 2019 Rise Set
Actual Time 7:50 AM CDT 6:15 PM CDT
Civil Twilight 7:20 AM CDT 6:46 PM CDT
Nautical Twilight 6:45 AM CDT 7:21 PM CDT
Astronomical Twilight 6:11 AM CDT 7:55 PM CDT
Moon 5:37 AM CDT (10/26) 5:59 PM CDT (10/26)
Length of Visible Light 11h 25m
Length of Day
10h 24m
Waning Crescent, 3% of the Moon is Illuminated
Oct 26
Waning Crescent
Oct 27
New
Nov 4
First Quarter
Nov 12
Full
Nov 19
Last Quarter

Hourly Weather History & Observations

Time (CDT) Temp. Windchill Dew Point Humidity Pressure Visibility Wind Dir Wind Speed Gust Speed Precip Events Conditions
12:15 AM 40.6 °F 34.3 °F 32.0 °F 71% 29.91 in 10.0 mi South 10.4 mph - N/A   Clear
12:16 AM 40.8 °F 34.5 °F 32.0 °F 71% 29.91 in 10.0 mi South 10.4 mph - N/A   Clear
12:35 AM 41.5 °F 35.0 °F 31.8 °F 68% 29.90 in 10.0 mi South 11.5 mph - N/A   Clear
12:58 AM 41.0 °F 35.2 °F 31.6 °F 69% 29.90 in 10.0 mi South 9.2 mph - N/A   Clear
1:16 AM 41.4 °F 34.3 °F 31.5 °F 68% 29.89 in 10.0 mi South 12.7 mph - N/A   Clear
1:35 AM 41.4 °F 35.7 °F 31.1 °F 67% 29.89 in 10.0 mi South 9.2 mph - N/A   Clear
1:36 AM 41.4 °F 35.2 °F 31.1 °F 67% 29.89 in 10.0 mi South 10.4 mph - N/A   Clear
1:55 AM 40.6 °F 34.8 °F 31.1 °F 69% 29.88 in 10.0 mi South 9.2 mph - N/A   Clear
2:18 AM 39.7 °F 33.7 °F 30.9 °F 71% 29.87 in 10.0 mi South 9.2 mph - N/A   Clear
2:36 AM 39.2 °F 32.5 °F 30.9 °F 72% 29.87 in 10.0 mi South 10.4 mph - N/A   Clear
2:55 AM 39.0 °F 31.8 °F 30.9 °F 73% 29.86 in 10.0 mi South 11.5 mph - N/A   Clear
3:15 AM 38.3 °F 32.5 °F 30.7 °F 74% 29.85 in 10.0 mi SSE 8.1 mph - N/A   Clear
3:16 AM 38.3 °F 32.5 °F 30.7 °F 74% 29.85 in 10.0 mi SSE 8.1 mph - N/A   Clear
3:39 AM 37.0 °F 31.6 °F 30.4 °F 77% 29.84 in 10.0 mi SE 6.9 mph - N/A   Clear
3:55 AM 36.9 °F 31.4 °F 30.4 °F 77% 29.83 in 10.0 mi SE 6.9 mph - N/A   Clear
4:15 AM 36.0 °F 30.3 °F 30.4 °F 80% 29.83 in 10.0 mi SSE 6.9 mph - N/A   Clear
4:16 AM 35.8 °F 30.1 °F 30.4 °F 81% 29.83 in 10.0 mi SSE 6.9 mph - N/A   Clear
4:35 AM 36.0 °F 30.3 °F 30.4 °F 80% 29.82 in 10.0 mi SSE 6.9 mph - N/A   Clear
4:59 AM 36.0 °F 29.6 °F 30.4 °F 80% 29.81 in 10.0 mi SSE 8.1 mph - N/A   Clear
5:16 AM 35.8 °F 28.8 °F 30.2 °F 80% 29.81 in 10.0 mi SSE 9.2 mph - N/A   Clear
5:36 AM 36.3 °F 28.9 °F 30.2 °F 78% 29.80 in 10.0 mi SSE 10.4 mph - N/A   Clear
5:55 AM 36.5 °F 29.7 °F 30.2 °F 78% 29.79 in 10.0 mi SSE 9.2 mph - N/A   Clear
6:15 AM 36.5 °F 28.7 °F 30.0 °F 77% 29.78 in 10.0 mi SSE 11.5 mph - N/A   Clear
6:19 AM 36.5 °F 28.7 °F 30.0 °F 77% 29.78 in 10.0 mi SSE 11.5 mph - N/A   Clear
6:38 AM 36.7 °F 28.9 °F 30.0 °F 77% 29.77 in 10.0 mi SSE 11.5 mph - N/A   Clear
6:55 AM 36.7 °F 28.9 °F 29.7 °F 76% 29.77 in 10.0 mi SSE 11.5 mph - N/A   Clear
7:15 AM 36.7 °F 28.4 °F 29.7 °F 76% 29.76 in 10.0 mi SSE 12.7 mph - N/A   Clear
7:35 AM 36.3 °F 28.0 °F 29.5 °F 76% 29.75 in 10.0 mi SSE 12.7 mph - N/A   Clear
7:36 AM 36.3 °F 28.0 °F 29.5 °F 76% 29.75 in 10.0 mi SSE 12.7 mph - N/A   Clear
7:59 AM 36.1 °F 28.7 °F 29.3 °F 76% 29.74 in 10.0 mi SSE 10.4 mph - N/A   Clear
8:16 AM 36.9 °F 28.7 °F 29.5 °F 75% 29.74 in 10.0 mi SSE 12.7 mph - N/A   Clear
8:36 AM 37.9 °F 30.9 °F 29.8 °F 73% 29.74 in 10.0 mi SSE 10.4 mph - N/A   Clear
8:55 AM 39.4 °F 31.1 °F 29.8 °F 69% 29.74 in 10.0 mi SSE 15.0 mph - N/A   Clear
8:56 AM 39.6 °F 31.3 °F 29.8 °F 68% 29.74 in 10.0 mi SSE 15.0 mph - N/A   Clear
9:19 AM 41.5 °F 33.8 °F 29.8 °F 63% 29.74 in 10.0 mi South 15.0 mph 18.4 mph N/A   Clear
9:38 AM 42.8 °F 35.8 °F 30.2 °F 61% 29.74 in 10.0 mi South 13.8 mph 18.4 mph N/A   Clear
9:55 AM 44.1 °F 37.4 °F 30.2 °F 58% 29.74 in 10.0 mi South 13.8 mph 19.6 mph N/A   Clear
10:15 AM 45.7 °F 39.5 °F 30.9 °F 56% 29.74 in 10.0 mi South 13.8 mph 21.9 mph N/A   Clear
10:58 AM 48.2 °F - 31.3 °F 52% 29.72 in 10.0 mi SSE 17.3 mph 25.3 mph N/A   Clear
11:16 AM 48.4 °F - 30.7 °F 51% 29.72 in 10.0 mi South 16.1 mph - N/A   Clear
11:36 AM 49.5 °F - 30.7 °F 49% 29.71 in 10.0 mi South 19.6 mph 25.3 mph N/A   Clear
11:55 AM 50.9 °F - 31.6 °F 48% 29.70 in 10.0 mi SSE 17.3 mph 23.0 mph N/A   Clear
11:56 AM 51.1 °F - 31.6 °F 47% 29.70 in 10.0 mi South 16.1 mph 23.0 mph N/A   Clear
12:15 PM 52.2 °F - 31.8 °F 46% 29.69 in 10.0 mi South 19.6 mph 24.2 mph N/A   Clear
12:19 PM 52.2 °F - 32.0 °F 46% 29.69 in 10.0 mi South 16.1 mph 24.2 mph N/A   Clear
12:38 PM 53.1 °F - 31.8 °F 44% 29.69 in 10.0 mi SSE 17.3 mph 26.5 mph N/A   Clear
12:55 PM 54.3 °F - 32.2 °F 43% 29.68 in 10.0 mi South 13.8 mph 25.3 mph N/A   Clear
1:15 PM 54.9 °F - 31.8 °F 42% 29.67 in 10.0 mi South 15.0 mph 25.3 mph N/A   Clear
1:16 PM 54.9 °F - 32.0 °F 42% 29.67 in 10.0 mi South 15.0 mph 25.3 mph N/A   Clear
1:35 PM 56.3 °F - 32.9 °F 41% 29.67 in 10.0 mi South 17.3 mph 23.0 mph N/A   Clear
1:36 PM 56.3 °F - 32.7 °F 41% 29.67 in 10.0 mi South 16.1 mph 23.0 mph N/A   Clear
1:58 PM 56.7 °F - 32.4 °F 40% 29.67 in 10.0 mi SSE 19.6 mph 25.3 mph N/A   Clear
2:17 PM 56.5 °F - 31.8 °F 39% 29.66 in 10.0 mi South 19.6 mph 25.3 mph N/A   Clear
2:36 PM 57.2 °F - 32.9 °F 40% 29.66 in 10.0 mi SSE 19.6 mph 23.0 mph N/A   Clear
2:55 PM 56.3 °F - 32.0 °F 40% 29.65 in 10.0 mi SSE 21.9 mph 25.3 mph N/A   Clear
2:56 PM 56.3 °F - 32.0 °F 40% 29.66 in 10.0 mi SSE 21.9 mph 25.3 mph N/A   Clear
3:15 PM 55.4 °F - 32.2 °F 41% 29.65 in 10.0 mi South 18.4 mph 23.0 mph N/A   Clear
3:20 PM 54.7 °F - 32.0 °F 42% 29.65 in 10.0 mi SSE 15.0 mph 23.0 mph N/A   Clear
3:37 PM 54.9 °F - 32.4 °F 42% 29.66 in 10.0 mi SSE 16.1 mph 20.7 mph N/A   Clear
3:55 PM 57.0 °F - 32.7 °F 40% 29.66 in 10.0 mi South 17.3 mph 21.9 mph N/A   Clear
4:15 PM 54.5 °F - 31.5 °F 42% 29.66 in 10.0 mi South 9.2 mph - N/A   Clear
4:16 PM 54.3 °F - 31.6 °F 42% 29.66 in 10.0 mi South 9.2 mph - N/A   Clear
4:35 PM 55.0 °F - 32.9 °F 43% 29.66 in 10.0 mi SSE 12.7 mph - N/A   Clear
4:36 PM 55.2 °F - 33.1 °F 43% 29.66 in 10.0 mi SSE 13.8 mph - N/A   Clear
4:58 PM 55.0 °F - 32.0 °F 42% 29.66 in 10.0 mi South 13.8 mph - N/A   Clear
5:17 PM 54.5 °F - 32.9 °F 44% 29.66 in 10.0 mi SSE 12.7 mph - N/A   Clear
5:36 PM 54.0 °F - 33.3 °F 46% 29.66 in 10.0 mi SSE 8.1 mph - N/A   Clear
5:55 PM 52.5 °F - 32.9 °F 47% 29.66 in 10.0 mi SSE 8.1 mph - N/A   Clear
5:56 PM 52.3 °F - 32.9 °F 48% 29.67 in 10.0 mi SSE 6.9 mph - N/A   Clear
6:15 PM 49.5 °F - 32.9 °F 53% 29.67 in 10.0 mi SSE 6.9 mph - N/A   Clear
6:37 PM 46.4 °F 43.5 °F 32.4 °F 58% 29.67 in 10.0 mi SE 5.8 mph - N/A   Clear
6:56 PM 45.1 °F 42.0 °F 32.4 °F 61% 29.67 in 10.0 mi SE 5.8 mph - N/A   Clear
7:15 PM 45.1 °F 42.0 °F 32.4 °F 61% 29.67 in 10.0 mi SE 5.8 mph - N/A   Clear
7:16 PM 45.1 °F 41.4 °F 32.4 °F 61% 29.67 in 10.0 mi SE 6.9 mph - N/A   Clear
7:35 PM 44.4 °F 40.0 °F 32.2 °F 62% 29.68 in 10.0 mi SE 8.1 mph - N/A   Clear
7:36 PM 44.4 °F 40.0 °F 32.2 °F 62% 29.68 in 10.0 mi SE 8.1 mph - N/A   Clear
7:58 PM 42.4 °F 38.1 °F 32.0 °F 67% 29.68 in 10.0 mi SE 6.9 mph - N/A   Clear
8:16 PM 42.8 °F 39.3 °F 32.0 °F 66% 29.67 in 10.0 mi SE 5.8 mph - N/A   Clear
8:35 PM 41.9 °F 38.2 °F 32.0 °F 68% 29.67 in 10.0 mi SE 5.8 mph - N/A   Clear
8:55 PM 41.9 °F 38.2 °F 32.0 °F 68% 29.67 in 10.0 mi SE 5.8 mph - N/A   Clear
8:56 PM 41.7 °F 38.8 °F 32.0 °F 68% 29.67 in 10.0 mi SE 4.6 mph - N/A   Clear
9:15 PM 38.8 °F 36.5 °F 32.2 °F 77% 29.68 in 10.0 mi WNW 3.5 mph - N/A   Clear
9:20 PM 36.9 °F 32.2 °F 31.8 °F 82% 29.68 in 10.0 mi WNW 5.8 mph - N/A   Clear
9:37 PM 38.8 °F 33.8 °F 32.5 °F 78% 29.69 in 10.0 mi WNW 6.9 mph - N/A   Clear
9:55 PM 40.3 °F 38.2 °F 32.2 °F 73% 29.69 in 10.0 mi WNW 3.5 mph - N/A   Clear
10:15 PM 37.4 °F - 31.8 °F 80% 29.70 in 10.0 mi Calm Calm - N/A   Clear
10:16 PM 37.8 °F - 32.0 °F 80% 29.70 in 10.0 mi Calm Calm - N/A   Clear
10:35 PM 38.1 °F - 31.8 °F 78% 29.70 in 10.0 mi Calm Calm - N/A   Clear
10:36 PM 37.8 °F 34.2 °F 31.6 °F 79% 29.71 in 10.0 mi WNW 4.6 mph - N/A   Clear
10:59 PM 40.6 °F 34.8 °F 36.3 °F 85% 29.71 in 10.0 mi NNW 9.2 mph - N/A   Clear
11:16 PM 41.9 °F 35.9 °F 37.6 °F 85% 29.71 in 10.0 mi NNW 10.4 mph 16.1 mph N/A   Clear
11:35 PM 41.7 °F 34.1 °F 37.0 °F 83% 29.71 in 10.0 mi NNW 15.0 mph 18.4 mph N/A   Clear
11:36 PM 41.5 °F 33.8 °F 36.9 °F 83% 29.71 in 10.0 mi NNW 15.0 mph 18.4 mph N/A   Clear
11:55 PM 41.0 °F 33.1 °F 36.0 °F 82% 29.72 in 10.0 mi NNW 15.0 mph 19.6 mph N/A   Clear
11:56 PM 41.0 °F 33.5 °F 36.0 °F 82% 29.72 in 10.0 mi NNW 13.8 mph 19.6 mph N/A   Clear